Flag for Norway Weather past 2 weeks in Drammen, Norway

Now
50 °F

Scattered clouds.


Feels Like: 43 °F
Forecast: 42 / 64 °F
Wind: 24 mph from West

Location: Oslo / Fornebu

Current Time: Jun 3, 2015 at 6:01:19 PM

Latest Report: Jun 3, 2015 at 5:20 PM


Visibility: N/A

Pressure: 29.86 "Hg

Humidity: 82%

Dew point: 45 °F

Location of DrammenLocation

Historic Weather in Drammen — Graph

°F

Drammen temperature yesterday

Maximum temperature yesterday: 50 °F (at 2:50 PM)
Minimum temperature yesterday: 45 °F (at 10:50 AM)
Average temperature yesterday: 46 °F

Past Weeks' High & Low Weather Summary

 TemperatureHumidityPressure
High55 °F (May 31, 11:50 AM)93% (May 19, 7:50 PM)29.83 "Hg (May 19, 7:50 PM)
Low43 °F (May 29, 6:50 AM)59% (May 31, 12:20 PM)29.03 "Hg (Jun 2, 12:20 PM)
Average48 °F79%29.46 "Hg
* Reported May 19 4:20 PM — Jun 3 4:50 PM, Drammen, Weather by CustomWeather, © 2015

Note: Actual official high and low records may vary slightly from our data, if they occured in-between our weather recording intervals... More about our weather records

Advertising

Drammen weather history for previous 24 hours

 ConditionsComfort  
Time TempWeatherWind HumidityBarometerVisibility
4:50 PM
Wed, Jun 3
50 °FPartly sunny.23 mph76%29.83 "HgN/A
4:20 PM50 °FBroken clouds.22 mph82%29.83 "HgN/A
3:50 PM50 °FBroken clouds.20 mph76%29.80 "HgN/A
3:20 PM50 °FPartly sunny.17 mph82%29.80 "HgN/A
2:50 PM50 °FPartly sunny.18 mph76%29.77 "HgN/A
2:20 PM50 °FPartly sunny.20 mph76%29.74 "HgN/A
1:50 PM50 °FScattered clouds.21 mph76%29.74 "HgN/A
1:20 PM52 °FPassing clouds.20 mph72%29.71 "HgN/A
12:50 PM52 °FPassing clouds.22 mph72%29.68 "HgN/A
12:20 PM52 °FPassing clouds.23 mph72%29.65 "HgN/A
11:50 AM50 °FPassing clouds.23 mph76%29.62 "HgN/A
11:20 AM50 °FPassing clouds.25 mph76%29.62 "HgN/A
10:50 AM50 °FScattered clouds.24 mph76%29.59 "HgN/A
10:20 AM50 °FScattered clouds.28 mph76%29.56 "HgN/A
9:50 AM50 °FPartly sunny.25 mph76%29.53 "HgN/A
9:20 AM48 °FScattered clouds.26 mph82%29.50 "HgN/A
8:50 AM48 °FBroken clouds.26 mph82%29.47 "HgN/A
8:20 AM48 °FPartly sunny.31 mph82%29.45 "HgN/A
7:50 AM48 °FOvercast.30 mph87%29.45 "HgN/A
7:20 AM48 °FPassing clouds.31 mph82%29.42 "HgN/A
6:50 AM48 °FPartly sunny.30 mph87%29.39 "HgN/A
6:20 AM48 °FPartly sunny.29 mph87%29.36 "HgN/A
5:50 AM46 °FRain. Partly sunny.17 mph87%29.36 "Hg3 mi
5:20 AM46 °FPartly sunny.16 mph87%29.33 "HgN/A
4:50 AM46 °FSprinkles. Passing clouds.14 mph87%29.33 "HgN/A
4:20 AM46 °FLight rain. Passing clouds.15 mph87%29.30 "HgN/A
3:50 AM46 °FPassing clouds.15 mph87%29.30 "HgN/A
3:20 AM46 °FPartly cloudy.14 mph87%29.27 "HgN/A
2:50 AM46 °FPassing clouds.10 mph87%29.27 "HgN/A
2:20 AM46 °FPassing clouds.12 mph87%29.24 "HgN/A
1:50 AM46 °FPassing clouds.13 mph87%29.24 "HgN/A
1:20 AM46 °FPassing clouds.14 mph87%29.24 "HgN/A
12:50 AM46 °FPassing clouds.15 mph87%29.21 "HgN/A
12:20 AM45 °FPassing clouds.14 mph93%29.21 "HgN/A
11:50 PM
Tue, Jun 2
45 °FPassing clouds.15 mph93%29.18 "HgN/A
11:20 PM45 °FBroken clouds.17 mph87%29.15 "HgN/A
10:50 PM45 °FPartly sunny.16 mph93%29.15 "HgN/A
10:20 PM45 °FPartly sunny.13 mph93%29.12 "HgN/A
9:50 PM45 °FSprinkles. Partly sunny.15 mph93%29.12 "HgN/A
9:20 PM45 °FPartly sunny.17 mph93%29.12 "HgN/A
8:50 PM45 °FPartly sunny.15 mph93%29.09 "HgN/A
8:20 PM45 °FSprinkles. Broken clouds.12 mph93%29.09 "HgN/A
7:50 PM45 °FSprinkles. Partly sunny.12 mph93%29.09 "Hg3 mi
7:20 PM46 °FPartly sunny.14 mph82%29.06 "HgN/A
6:50 PM46 °FOvercast.14 mph82%29.06 "HgN/A
6:20 PM46 °FOvercast.14 mph82%29.06 "HgN/A
Weather by CustomWeather, © 2015

See weather overviewHow to use our weather pages